Temp
-13 -13 -13 -13 -13 -13 -13 -13 -13 -13 -13 -13 -14 -14 -14 -14 -14 -13 -13 -13 -13 -13 -13 -13 -13 -13 -13 -13 -13 -13 -13 -13 -14 -14 -14 -14 -14 -14 -14 -14 -14 -14
-14 -14 -13 -13 -13 -13 -13 -13 -13 -13 -14 -14 -14 -14 -14 -14 -14 -14 -14 -14 -14 -14 -14 -14 -14 -14 -13 -13 -13 -14 -14 -14 -14 -14 -14 -14 -14 -14 -14 -14 -14 -14
-14 -14 -13 -13 -13 -13 -13 -13 -14 -14 -14 -14 -14 -14 -14 -14 -14 -14 -14 -14 -14 -14 -14 -14 -14 -14 -14 -14 -14 -14 -14 -14 -14 -14 -14 -14 -14 -14 -14 -14 -14 -14
-14 -14 -13 -13 -13 -14 -14 -14 -14 -14 -14 -14 -14 -14 -14 -14 -14 -14 -14 -14 -14 -14 -14 -14 -14 -14 -14 -14 -14 -14 -14 -14 -14 -14 -14 -14 -14 -14 -14 -14 -14 -14
-14 -14 -14 -14 -14 -14 -14 -14 -14 -14 -14 -14 -14 -14 -14 -14 -14 -14 -14 -14 -14 -14 -14 -14 -14 -14 -14 -14 -14 -14 -14 -14 -14 -14 -14 -14 -14 -14 -14 -14 -14 -14
-14 -14 -14 -14 -14 -14 -14 -14 -14 -14 -14 -14 -14 -14 -14 -14 -14 -14 -14 -14 -14 -14 -14 -14 -14 -14 -14 -14 -14 -14 -14 -14 -14 -15 -15 -15 -15 -14 -14 -14 -14 -14
-14 -14 -14 -14 -14 -14 -15 -15 -15 -15 -15 -15 -15 -15 -15 -15 -15 -15 -14 -14 -14 -14 -14 -14 -14 -14 -14 -14 -14 -14 -14 -14 -15 -15 -15 -15 -15 -14 -14 -14 -14 -14
-14 -14 -14 -14 -15 -15 -15 -15 -15 -15 -15 -15 -15 -15 -15 -15 -15 -15 -15 -14 -14 -14 -14 -14 -14 -14 -14 -14 -14 -15 -15 -15 -15 -15 -15 -15 -15 -15 -14 -14 -15 -15
-14 -14 -14 -15 -15 -15 -15 -15 -15 -15 -15 -15 -15 -15 -15 -15 -15 -15 -15 -14 -14 -14 -14 -14 -15 -15 -15 -15 -15 -15 -15 -15 -15 -15 -15 -15 -15 -15 -15 -15 -15 -15
-14 -14 -15 -15 -15 -15 -15 -15 -15 -15 -15 -15 -15 -15 -15 -15 -15 -15 -15 -15 -15 -15 -15 -15 -15 -15 -15 -15 -15 -15 -15 -15 -15 -15 -15 -15 -15 -15 -15 -15 -15 -15
-14 -14 -14 -15 -15 -15 -15 -15 -15 -15 -15 -15 -15 -15 -15 -15 -15 -15 -15 -15 -15 -15 -15 -15 -15 -15 -15 -15 -15 -15 -15 -15 -15 -15 -15 -15 -15 -15 -15 -16 -16 -16
-14 -14 -14 -14 -15 -14 -14 -15 -15 -15 -15 -15 -15 -15 -15 -15 -15 -15 -15 -15 -15 -15 -15 -15 -15 -15 -15 -15 -15 -15 -15 -15 -15 -15 -15 -15 -15 -16 -16 -16 -16 -16
-14 -14 -14 -14 -14 -14 -15 -15 -15 -15 -15 -15 -15 -15 -15 -15 -15 -15 -15 -15 -15 -15 -15 -15 -15 -15 -15 -15 -15 -15 -15 -15 -15 -15 -16 -16 -16 -16 -16 -16 -16 -16
-14 -14 -14 -14 -14 -14 -15 -15 -15 -15 -15 -15 -15 -15 -15 -15 -15 -15 -15 -15 -15 -15 -15 -15 -15 -15 -15 -15 -15 -15 -15 -15 -15 -16 -16 -16 -16 -16 -16 -16 -16 -16
-14 -14 -14 -14 -14 -14 -14 -14 -15 -15 -15 -15 -15 -15 -15 -15 -15 -15 -15 -15 -15 -15 -15 -15 -15 -14 -15 -15 -15 -15 -15 -15 -16 -16 -16 -16 -16 -16 -16 -16 -16 -16
-14 -14 -14 -14 -14 -14 -14 -14 -14 -14 -15 -15 -15 -15 -15 -15 -15 -15 -15 -15 -15 -15 -15 -15 -14 -15 -15 -15 -15 -15 -15 -16 -16 -16 -16 -16 -16 -16 -16 -16 -17 -17
-14 -14 -14 -14 -14 -14 -14 -14 -14 -14 -15 -15 -15 -15 -15 -15 -15 -15 -15 -15 -15 -15 -15 -14 -15 -15 -15 -15 -15 -15 -16 -16 -16 -16 -16 -16 -16 -16 -17 -17 -17 -17
-14 -14 -14 -15 -14 -14 -14 -14 -14 -15 -15 -15 -15 -15 -15 -15 -15 -15 -15 -15 -15 -15 -15 -15 -15 -15 -15 -15 -16 -16 -16 -16 -16 -16 -16 -17 -17 -17 -17 -17 -17 -17
-14 -14 -14 -15 -14 -15 -14 -14 -15 -15 -15 -15 -15 -15 -15 -15 -15 -15 -15 -15 -15 -15 -15 -15 -15 -15 -15 -16 -16 -16 -16 -16 -16 -17 -17 -17 -17 -17 -17 -17 -18 -18
-14 -14 -15 -15 -15 -15 -15 -15 -15 -15 -15 -15 -15 -15 -15 -15 -15 -15 -15 -15 -15 -15 -15 -15 -15 -15 -16 -16 -16 -16 -16 -17 -17 -17 -17 -17 -18 -18 -18 -18 -18 -18
-14 -14 -15 -15 -15 -15 -15 -15 -15 -15 -15 -15 -15 -15 -15 -15 -15 -15 -15 -15 -15 -15 -15 -15 -16 -16 -16 -16 -16 -17 -17 -17 -17 -17 -18 -18 -18 -18 -18 -18 -18 -18
-14 -14 -14 -15 -15 -15 -15 -15 -15 -15 -15 -15 -16 -16 -15 -15 -15 -15 -15 -15 -15 -15 -15 -16 -16 -16 -16 -17 -17 -17 -17 -17 -18 -18 -18 -18 -18 -18 -18 -18 -18 -18
-14 -14 -14 -15 -15 -15 -15 -15 -15 -15 -15 -16 -16 -16 -15 -15 -15 -15 -15 -15 -15 -15 -16 -16 -16 -16 -17 -17 -17 -17 -17 -18 -18 -18 -18 -18 -18 -18 -18 -18 -18 -19
-14 -14 -15 -15 -15 -15 -15 -15 -15 -15 -16 -16 -16 -16 -16 -15 -15 -15 -15 -15 -16 -16 -16 -16 -17 -17 -17 -17 -17 -17 -18 -18 -18 -18 -18 -18 -18 -18 -18 -18 -19 -19
-14 -14 -15 -15 -15 -15 -15 -15 -15 -16 -16 -16 -16 -16 -16 -15 -15 -15 -15 -16 -16 -16 -16 -17 -17 -17 -17 -17 -18 -18 -18 -18 -18 -18 -18 -18 -18 -18 -18 -19 -19 -20
-15 -15 -15 -14 -15 -15 -15 -15 -16 -16 -16 -16 -16 -16 -16 -16 -16 -16 -16 -16 -16 -17 -17 -17 -17 -17 -17 -18 -18 -18 -18 -18 -18 -18 -18 -18 -18 -18 -19 -19 -19 -20
Height
5790 5791 5792 5793 5794 5794 5795 5796 5797 5798 5799 5800 5801 5802 5803 5804 5805 5806 5806 5807 5807 5807 5807 5806 5805 5805 5804 5803 5802 5801 5800 5799 5797 5795 5794 5792 5790 5788 5785 5783 5782 5780
5789 5790 5791 5792 5792 5793 5794 5795 5796 5797 5797 5798 5800 5801 5802 5803 5803 5804 5805 5805 5805 5804 5804 5803 5803 5802 5801 5801 5800 5799 5798 5796 5794 5793 5791 5789 5787 5784 5782 5780 5778 5776
5788 5789 5790 5791 5791 5792 5793 5794 5795 5796 5796 5797 5798 5799 5800 5801 5802 5802 5802 5802 5802 5802 5801 5801 5800 5800 5799 5799 5798 5796 5795 5793 5791 5790 5788 5785 5783 5781 5779 5777 5774 5772
5788 5789 5789 5790 5791 5792 5793 5794 5794 5795 5795 5796 5797 5798 5798 5799 5800 5800 5800 5800 5800 5800 5799 5799 5799 5798 5797 5796 5795 5794 5792 5790 5788 5786 5784 5782 5779 5777 5775 5772 5770 5767
5787 5788 5789 5790 5791 5792 5793 5793 5794 5794 5795 5795 5796 5796 5797 5797 5798 5798 5798 5798 5798 5798 5798 5797 5797 5796 5795 5794 5792 5790 5789 5787 5785 5782 5780 5778 5776 5773 5771 5768 5765 5763
5787 5787 5788 5789 5790 5791 5791 5792 5792 5793 5793 5794 5794 5795 5795 5796 5796 5796 5797 5797 5796 5796 5795 5795 5794 5793 5792 5791 5789 5787 5785 5783 5781 5779 5776 5774 5772 5769 5767 5764 5761 5759
5786 5786 5787 5788 5789 5790 5790 5791 5791 5791 5792 5792 5792 5793 5794 5794 5794 5795 5795 5795 5794 5794 5793 5792 5791 5790 5789 5787 5786 5784 5782 5780 5777 5775 5773 5770 5768 5765 5763 5760 5757 5754
5784 5785 5786 5787 5788 5789 5789 5790 5790 5790 5790 5790 5791 5791 5792 5792 5792 5793 5793 5792 5792 5791 5790 5789 5788 5787 5786 5784 5782 5780 5778 5776 5774 5771 5769 5767 5764 5761 5759 5756 5753 5750
5782 5783 5784 5785 5786 5787 5788 5788 5788 5788 5788 5788 5789 5789 5790 5790 5790 5790 5790 5790 5789 5788 5787 5786 5785 5784 5782 5780 5779 5777 5775 5772 5770 5768 5765 5763 5760 5757 5755 5752 5749 5747
5781 5782 5782 5783 5785 5786 5786 5786 5786 5786 5786 5786 5787 5787 5787 5788 5788 5788 5787 5787 5786 5785 5784 5783 5782 5780 5779 5777 5775 5773 5771 5769 5766 5764 5762 5759 5756 5754 5751 5748 5746 5743
5779 5780 5781 5782 5783 5784 5784 5784 5784 5784 5784 5784 5785 5785 5785 5785 5785 5785 5784 5783 5782 5782 5781 5780 5778 5777 5776 5774 5772 5770 5767 5765 5763 5760 5758 5755 5753 5750 5748 5745 5743 5740
5777 5778 5779 5780 5781 5782 5782 5782 5782 5782 5782 5782 5782 5782 5782 5782 5782 5782 5781 5780 5779 5779 5778 5777 5775 5774 5772 5770 5768 5766 5764 5762 5759 5757 5754 5752 5749 5747 5744 5742 5740 5737
5775 5776 5777 5778 5779 5779 5779 5779 5779 5779 5779 5779 5779 5780 5780 5780 5779 5779 5778 5777 5777 5776 5775 5774 5772 5771 5769 5767 5765 5763 5760 5758 5756 5753 5751 5748 5746 5744 5741 5739 5736 5734
5773 5774 5775 5776 5776 5776 5776 5776 5776 5776 5777 5777 5777 5777 5777 5777 5777 5776 5776 5775 5774 5774 5772 5771 5769 5768 5766 5764 5761 5759 5757 5755 5752 5750 5748 5746 5743 5741 5738 5736 5733 5730
5772 5772 5772 5773 5773 5773 5773 5773 5773 5774 5774 5774 5775 5775 5775 5775 5775 5774 5774 5773 5772 5771 5770 5768 5766 5764 5762 5760 5758 5756 5753 5751 5749 5747 5745 5743 5740 5738 5735 5732 5729 5726
5769 5770 5770 5770 5771 5771 5771 5771 5771 5771 5772 5772 5772 5773 5773 5773 5772 5772 5771 5770 5769 5768 5766 5765 5763 5761 5759 5756 5754 5752 5750 5748 5746 5744 5742 5740 5737 5734 5732 5728 5725 5722
5767 5768 5768 5768 5768 5768 5768 5768 5769 5769 5770 5770 5770 5771 5771 5771 5770 5770 5769 5767 5766 5765 5763 5761 5759 5757 5755 5753 5751 5749 5747 5745 5743 5741 5739 5737 5734 5731 5728 5725 5722 5718
5765 5766 5766 5766 5766 5766 5766 5766 5766 5767 5767 5768 5768 5768 5768 5768 5768 5767 5766 5764 5763 5761 5759 5757 5755 5753 5752 5750 5748 5746 5744 5742 5740 5738 5736 5733 5730 5728 5724 5721 5718 5714
5762 5763 5763 5763 5763 5763 5763 5764 5764 5765 5765 5765 5765 5766 5766 5765 5765 5764 5762 5761 5759 5758 5756 5754 5752 5750 5748 5746 5745 5743 5741 5739 5737 5735 5733 5730 5727 5724 5721 5718 5715 5711
5760 5760 5760 5760 5760 5761 5761 5762 5762 5762 5762 5762 5763 5763 5763 5762 5761 5760 5759 5757 5756 5754 5752 5750 5749 5747 5745 5744 5742 5740 5739 5737 5735 5732 5730 5727 5724 5721 5718 5715 5712 5708
5757 5757 5757 5757 5758 5758 5759 5759 5759 5759 5760 5760 5760 5760 5760 5759 5758 5757 5755 5754 5752 5750 5749 5747 5746 5744 5743 5741 5740 5738 5736 5734 5732 5729 5727 5724 5721 5718 5715 5712 5709 5705
5754 5754 5754 5753 5754 5755 5755 5756 5756 5756 5756 5757 5757 5757 5756 5756 5754 5753 5752 5750 5749 5747 5745 5744 5743 5741 5740 5739 5737 5735 5733 5731 5729 5726 5724 5721 5718 5716 5713 5710 5706 5702
5751 5751 5751 5750 5751 5752 5752 5752 5753 5753 5753 5753 5754 5753 5753 5752 5751 5749 5748 5747 5745 5744 5742 5741 5740 5739 5738 5736 5734 5732 5730 5728 5726 5723 5721 5718 5716 5713 5710 5707 5704 5700
5748 5748 5747 5747 5747 5747 5748 5749 5749 5750 5750 5750 5750 5750 5749 5748 5747 5746 5745 5743 5742 5741 5739 5738 5737 5736 5735 5733 5732 5730 5728 5725 5723 5721 5718 5716 5714 5711 5708 5704 5701 5697
5743 5743 5743 5743 5743 5743 5744 5745 5746 5747 5747 5747 5747 5746 5746 5745 5744 5742 5741 5740 5739 5738 5737 5736 5735 5733 5732 5730 5729 5727 5725 5723 5720 5718 5716 5714 5711 5708 5705 5702 5698 5695
5739 5740 5739 5738 5737 5737 5740 5742 5743 5743 5743 5744 5743 5743 5742 5741 5740 5739 5738 5737 5736 5735 5734 5733 5732 5731 5729 5727 5726 5724 5722 5720 5718 5716 5714 5711 5709 5706 5703 5699 5696 5693
Wind_Speed
14 14 14 16 15 13 13 13 13 13 13 11 11 13 14 14 15 17 18 19 19 21 22 24 25 25 26 26 27 27 28 29 29 30 30 30 31 32 33 34 34 35
13 13 14 15 14 13 14 13 13 12 10 9 11 13 14 15 16 17 18 19 20 22 23 24 25 26 26 27 27 28 29 30 30 31 31 31 32 33 34 35 36 37
13 11 12 13 14 14 14 13 11 10 9 10 12 13 14 15 16 17 18 19 21 23 24 25 25 26 26 27 28 29 30 30 31 31 32 32 33 34 35 37 38 39
11 10 11 13 14 14 13 11 10 8 9 11 12 13 15 16 16 18 19 20 22 23 24 25 25 26 27 28 29 30 30 31 31 32 32 33 34 35 37 39 40 41
13 11 12 14 14 13 11 9 8 8 10 12 13 15 16 16 17 18 20 21 22 23 24 25 26 27 28 29 30 30 31 31 31 32 33 34 36 38 39 41 42 43
14 13 14 14 13 10 8 7 8 10 11 13 14 15 16 17 18 19 20 22 23 24 25 26 27 28 29 29 30 31 31 32 32 33 35 36 38 39 41 43 44 45
15 14 14 12 10 7 7 8 10 11 13 14 15 16 16 17 19 20 21 22 23 24 25 27 28 28 29 30 30 31 31 32 33 35 36 38 39 41 43 45 46 47
16 15 13 11 8 7 8 10 11 12 13 14 15 16 17 18 20 21 22 22 23 25 26 27 27 28 29 30 30 31 32 34 35 37 38 39 41 43 45 47 47 47
17 15 13 10 8 9 10 11 12 13 14 15 16 17 18 19 20 21 22 23 24 25 26 26 27 28 29 30 31 32 34 36 37 38 39 41 43 45 46 47 46 45
16 15 13 12 11 12 12 13 14 14 15 16 17 18 19 19 20 21 22 23 24 25 26 26 27 28 30 31 33 34 36 37 38 40 41 43 44 45 45 44 43 43
14 14 14 13 13 13 13 14 15 15 16 17 18 19 19 20 20 21 23 24 25 25 26 26 28 30 31 33 34 36 37 38 40 41 42 43 44 44 43 42 42 42
14 14 14 14 14 13 13 14 15 17 18 18 19 20 20 20 21 22 23 24 24 25 26 28 30 31 33 34 36 37 39 40 41 42 42 42 42 41 41 41 42 43
15 15 15 15 14 14 14 15 17 18 19 19 19 20 20 21 22 23 23 24 24 26 28 30 31 33 34 36 37 38 40 41 41 41 40 40 39 40 40 41 42 44
16 16 16 16 15 15 15 17 18 18 19 19 19 19 20 21 22 22 23 24 26 28 30 31 33 34 35 37 38 39 40 41 40 39 38 38 38 39 40 41 43 45
17 17 17 17 17 17 17 17 17 18 18 18 19 19 20 21 21 22 24 26 28 30 31 32 34 35 36 37 38 39 39 39 38 37 36 37 37 38 40 42 44 46
18 18 18 18 18 18 18 18 18 18 18 18 19 19 20 20 21 23 26 28 29 31 32 33 34 35 36 37 37 37 37 36 35 35 36 36 37 39 41 43 45 46
20 20 20 20 20 19 19 20 20 19 19 19 19 19 19 21 23 25 27 29 30 31 33 34 35 35 36 36 36 35 34 33 34 34 35 36 38 40 42 44 45 46
22 22 21 21 21 21 21 21 21 20 20 20 19 19 21 22 25 27 29 30 31 32 33 34 35 36 36 35 34 32 32 32 32 33 35 37 39 41 42 44 44 45
23 23 23 23 22 22 22 22 22 21 21 20 20 21 22 24 26 28 29 30 31 32 34 35 36 35 35 33 32 31 31 31 32 34 35 37 39 40 42 43 43 44
25 24 24 24 24 24 23 23 23 22 22 22 22 23 24 26 28 29 30 31 32 33 35 35 35 34 33 32 31 30 30 31 32 34 35 37 39 40 41 42 43 45
26 26 26 26 25 25 25 25 24 23 23 24 24 24 26 27 29 30 30 31 33 34 35 35 34 33 32 31 30 30 31 31 32 34 35 37 38 39 40 41 43 45
29 28 29 29 27 27 27 26 25 24 25 25 25 26 27 28 29 30 31 32 33 34 35 34 33 31 30 29 29 30 30 31 32 34 35 37 38 39 40 41 43 44
30 30 31 30 29 29 29 28 26 26 26 26 26 27 27 28 29 30 31 33 34 34 33 32 30 30 29 29 29 29 30 31 32 34 36 37 37 38 39 41 43 43
32 32 33 32 31 31 31 30 28 27 27 27 27 27 27 28 29 30 32 33 33 33 31 29 29 28 28 28 28 28 29 31 33 34 35 36 36 38 40 41 41 40
34 35 36 36 36 36 34 30 28 27 27 27 26 26 27 28 29 31 32 32 32 30 29 27 27 27 27 27 27 28 30 31 33 34 34 35 36 38 39 40 39 38
32 33 34 37 40 39 33 28 27 26 25 25 25 26 28 29 30 31 31 31 30 28 27 26 26 26 26 26 27 28 30 31 32 33 33 34 36 38 38 38 37 35
Wind_Direction
230 222 212 205 200 199 202 203 201 202 204 209 225 237 244 251 258 263 267 273 278 281 283 285 287 290 293 294 296 297 298 299 300 301 302 304 306 308 309 310 309 309
205 200 198 199 203 203 202 200 200 204 208 219 234 243 249 255 261 266 272 278 281 283 286 288 290 293 294 295 296 298 299 300 300 302 304 306 308 309 308 307 307 307
195 199 199 199 200 199 199 198 199 205 217 231 242 250 256 261 266 272 277 281 284 286 288 290 292 292 293 295 297 298 299 300 301 304 306 307 308 307 306 306 307 308
217 219 203 196 197 198 198 196 198 211 228 240 249 255 261 266 271 276 280 283 285 287 289 290 291 292 294 296 297 298 300 302 304 306 307 307 307 306 306 306 307 308
224 213 200 197 198 197 195 197 210 226 237 245 253 259 264 269 274 278 281 283 286 288 289 289 290 292 294 297 298 300 302 304 307 307 307 307 307 306 307 307 308 309
210 204 202 201 197 195 199 213 228 237 244 251 257 262 267 272 275 279 282 285 288 288 287 288 290 293 296 298 300 302 304 306 307 306 306 306 307 307 307 308 310 312
204 205 205 201 197 202 216 231 240 246 252 257 262 266 271 274 278 281 284 285 286 286 286 288 291 295 297 299 301 304 305 306 306 307 307 307 307 308 309 310 312 314
206 207 206 202 203 218 232 240 246 251 256 260 264 268 272 275 278 280 282 284 285 286 288 291 294 297 299 300 302 304 306 307 307 307 307 308 308 309 310 312 314 315
210 208 205 205 214 229 237 241 245 249 254 258 262 267 270 273 276 280 283 284 286 288 290 294 296 298 300 302 304 306 307 307 307 307 307 308 309 310 312 313 315 315
218 213 208 210 219 229 234 239 245 249 255 259 263 267 270 274 278 282 284 286 289 291 294 297 298 300 302 304 305 306 306 307 307 308 308 308 309 311 313 314 315 314
225 220 216 216 220 227 234 241 249 255 261 264 267 270 272 276 280 283 286 289 292 295 297 299 301 302 303 304 304 305 307 308 308 308 308 309 310 313 314 314 314 313
231 227 224 222 223 230 239 247 254 259 263 265 268 271 274 278 281 285 289 291 295 298 300 301 301 302 302 303 305 307 308 309 309 309 309 310 312 314 314 313 313 312
239 234 230 227 228 236 246 253 257 260 263 265 268 271 275 279 283 287 290 293 297 299 299 300 300 301 303 304 306 308 309 310 310 310 310 312 313 313 313 312 313 314
244 240 235 230 231 240 248 253 256 259 262 266 270 274 278 282 285 289 292 295 297 298 298 299 300 302 303 305 306 307 308 310 310 310 312 313 312 312 312 313 315 316
246 243 239 234 235 240 245 249 254 259 264 269 274 278 280 284 288 291 293 295 295 296 298 299 300 302 304 305 306 307 309 310 310 311 312 312 312 313 314 316 316 316
247 245 241 238 237 241 245 250 257 262 268 272 275 278 281 285 288 290 292 293 295 297 298 299 301 303 304 306 307 308 309 310 310 310 311 311 313 315 316 317 316 316
248 246 242 239 240 243 247 251 257 263 269 272 274 277 281 284 287 289 292 293 295 296 298 300 302 304 306 308 309 310 310 309 309 310 311 313 316 317 317 317 317 318
250 247 244 242 243 246 248 251 257 264 269 271 274 276 279 283 287 290 292 293 294 296 298 301 303 305 308 310 310 311 311 310 310 312 314 316 318 318 318 318 319 320
252 251 247 245 246 247 248 252 259 264 268 270 272 275 279 285 289 291 292 293 295 297 299 302 304 307 310 311 311 311 311 311 312 314 317 318 318 318 319 320 321 321
255 254 250 247 247 248 250 255 260 263 267 269 271 275 280 285 288 290 291 293 295 298 300 303 306 308 310 311 311 311 311 312 314 317 318 318 319 320 321 322 322 322
256 255 252 248 247 248 251 255 258 262 265 267 270 275 280 284 287 290 291 293 295 298 301 304 307 309 310 310 309 310 312 314 316 318 319 319 320 321 322 322 322 322
254 254 253 250 247 248 251 253 256 260 263 266 270 274 278 283 287 289 291 293 295 299 302 305 307 307 307 307 308 311 313 316 317 318 320 321 322 322 322 322 322 324
255 255 254 253 248 247 249 252 254 257 260 264 269 273 278 283 286 288 290 292 296 300 303 304 305 305 305 306 309 312 314 317 319 320 321 322 322 321 321 322 324 325
256 256 256 254 250 247 249 253 256 258 260 264 268 272 278 283 285 287 289 292 297 300 302 302 302 302 304 306 309 313 316 318 320 321 321 321 321 321 322 323 325 326
258 257 255 255 253 249 250 255 260 261 262 264 268 274 279 282 284 286 289 294 297 299 300 300 300 301 303 307 311 314 317 319 320 321 321 320 321 322 323 325 326 328
265 265 262 259 257 252 249 256 262 262 262 265 270 275 279 281 283 287 291 295 296 296 297 297 298 301 305 309 313 316 318 319 320 320 319 320 321 323 324 326 327 329